DMSP 5D-2 F13 DEB, 40517

Orbit data source: Space-Track

DMSP 5D-2 F13 DEB, 40517 is space debris in SSO originally from a launch on Fri, 24 Mar 1995 UTC launched from the Air Force Western Test Range (AFWTR). Debris objects in space refer to the collection of defunct objects orbiting the Earth. Examples of debris include non-operational satellites, rocket bodies, and fragments generated from explosions, collisions, or faulty payload assembly.

Loading next visibility...
Identifier
40517, 1995-015DD
Orbit
SSO
Country
Flag of USUS
Related business
Manufacturer
Unknown
Mission
Spacecraft
Bus & Motor
Unknown
Mass
Unknown
Launch date (UTC)
1995-03-24 (31 years ago)
Launch vehicle
Unknown
Launch site
Air Force Western Test Range (AFWTR)
Object type
Payload
Rocket body
Debris
Shape & HBR
Unknown shape, 0.1 m
Radar Cross Section
Medium (>0.1 m² and <1 m²)

Expand to show TLE details & history
Last TLE update: 2 days ago

TLE from 2 days ago
0 DMSP 5D-2 F13 DEB
1 40517U 95015DD  26170.60565090  .00005840  00000-0  13964-2 0  9996
2 40517  98.5849 223.7434 0020410 122.2712 238.0464 14.53858581586522
Epoch: 2026-06-19T14:32Z
TLE epoch observation values (Epoch: 2026-06-19T14:32:08.237Z)
Latitude
-0.00009°
Longitude
97.87687°
Altitude
723.721 km
Speed
7.489 km/s
True Right ascension
14h 54m 58s
True Declination
0° 00' 00"
Sunlit
Object was in full shadow at epoch
Visualization orbit readout
Latitude
Unknown
Longitude
Unknown
Altitude
Unknown
Speed
Unknown
Apparent Right ascension
Unknown
Apparent Declination
Unknown
Sunlit
N/A
Visualization observer readout
Local Sidereal Time
13:27:00
Azimuth
Unknown
Elevation
Unknown
Doppler factor
Unknown
Orbital elements
Apogee altitude
724.649 km
Perigee altitude
695.714 km
Semi-major axis
7,088.318 km
Eccentricity
0.00204
Inclination
98.5849°
RAAN
223.7434°
Arg. of periapsis
122.2712°
True anomaly
237.84823°
Mean anomaly
238.0464°
Eccentric anomaly
237.94729°
Mean motion
3.63687 °/min
Orbital period
98.99 mins
BSTAR
0.0013964
Loading maneuver chart data...
Computing Atmospheric mass density...

Documentation

Showing up to 5 results
|